map of KEKS home
KEKS - Airport
Location
City:  Ennis, Montana, United States
Name:Ennis - Big Sky Airport
ICAO:KEKS
FAA LID:EKS

Details
Type:Airport (Airfield)
Use:Public/Civil
Latitude:4516'28"N (45.274361)
Longitude:11138'56"W (-111.648860)
Datum:WGS 1984
Elevation:5422 ft (1653 m)
Variation:11.97E (WMM2015v2 magnetic declination)
-0.09 annual change
Runways:1
Longest:6601 × 75 ft (2012 × 23 m), paved

Weather
METAR:KEKS 041415Z AUTO 00000KT 10SM FEW003 OVC020 M22/M24 A2964 RMK AO2
TAF:KEKS 041132Z 0412/0512 34007KT P6SM VCSH OVC015
FM041700 19010KT P6SM SCT015 OVC030
FM042100 23008KT P6SM SCT030 BKN060 PROB30 0509/0512 4SM -SN BR SCT015 OVC025

Related Locations
Nearby:
Farthest:RRG: 10649 mi / 17137 km
Plaine Corail [Sir Gatan Duval Airport (Plaine Corail Airport)], Rodrigues Island, MU

Find:

   beyond  
but within

Other Information
Maps:
NOTAMs:
Links:
Sources:

  
  • flag of United States
  • flag of Montana
  

Sectional Chart

Flight Planning
at skyvector.com

Satellite Image

Google Maps Satellite view

 

Copyright © 2004-2019 Karl L. Swartz. All rights reserved.
The Great Circle Mapper name and logo are trademarks of the Great Circle Mapper.
All other trademarks mentioned herein belong to their respective owners.
Please see credits for attibutions and further copyright information.

  Follow gcmap on Facebook Follow gcmap on Twitter GCmap on LinkedIn

hCard Microformat

Geo Microformat